Time,TemperatureF,DewpointF,PressureIn,WindDirection,WindDirectionDegrees,WindSpeedMPH,WindSpeedGustMPH,Humidity,HourlyPrecipIn,Conditions,Clouds,dailyrainin,SoftwareType,DateUTC
2013-12-08 00:01:00,19.3,14.7,30.77,WNW,294,2.0,4.0,82,0.00,,---,0.00,VWS V13.01,2013-12-08 05:01:00,
2013-12-08 00:02:00,19.3,14.7,30.77,WNW,294,2.0,4.0,82,0.00,,---,0.00,VWS V13.01,2013-12-08 05:02:00,
2013-12-08 00:04:00,19.3,15.0,30.77,WNW,294,4.0,5.0,83,0.00,,---,0.00,VWS V13.01,2013-12-08 05:04:00,
2013-12-08 00:06:00,19.4,15.1,30.77,WNW,294,1.0,5.0,83,0.00,,---,0.00,VWS V13.01,2013-12-08 05:06:00,
2013-12-08 00:09:00,19.4,17.2,30.77,WNW,294,2.0,5.0,91,0.00,,---,0.00,VWS V13.01,2013-12-08 05:09:00,
2013-12-08 00:15:00,19.4,14.8,30.76,WNW,294,1.0,5.0,82,0.00,,---,0.00,VWS V13.01,2013-12-08 05:15:00,
2013-12-08 00:20:00,19.4,15.1,30.76,WNW,294,0.0,5.0,83,0.00,,---,0.00,VWS V13.01,2013-12-08 05:20:00,
2013-12-08 00:25:00,19.4,15.1,30.76,WNW,294,0.0,5.0,83,0.00,,---,0.00,VWS V13.01,2013-12-08 05:25:00,
2013-12-08 00:30:00,19.5,14.9,30.76,WNW,294,0.0,0.0,82,0.00,,---,0.00,VWS V13.01,2013-12-08 05:30:00,
2013-12-08 00:35:00,19.5,14.9,30.76,WNW,294,2.0,6.0,82,0.00,,---,0.00,VWS V13.01,2013-12-08 05:35:00,
2013-12-08 00:40:00,19.6,15.3,30.76,WNW,294,5.0,6.0,83,0.00,,---,0.00,VWS V13.01,2013-12-08 05:40:00,
2013-12-08 00:45:00,19.7,15.4,30.75,WNW,294,1.0,6.0,83,0.00,,---,0.00,VWS V13.01,2013-12-08 05:45:00,
2013-12-08 00:50:00,19.7,15.4,30.75,WNW,294,0.0,6.0,83,0.00,,---,0.00,VWS V13.01,2013-12-08 05:50:00,
2013-12-08 00:55:00,19.7,15.4,30.76,WNW,294,8.0,8.0,83,0.00,,---,0.00,VWS V13.01,2013-12-08 05:55:00,
2013-12-08 01:00:00,19.7,15.1,30.76,WNW,294,3.0,4.0,82,0.00,,---,0.00,VWS V13.01,2013-12-08 06:00:00,
2013-12-08 01:05:00,19.7,15.1,30.75,WNW,294,5.0,7.0,82,0.00,,---,0.00,VWS V13.01,2013-12-08 06:05:00,
2013-12-08 01:10:00,19.7,15.1,30.75,WNW,294,2.0,7.0,82,0.00,,---,0.00,VWS V13.01,2013-12-08 06:10:00,
2013-12-08 01:15:00,19.7,15.4,30.75,WNW,294,5.0,7.0,83,0.00,,---,0.00,VWS V13.01,2013-12-08 06:15:00,
2013-12-08 01:20:00,19.7,15.4,30.75,WNW,294,5.0,7.0,83,0.00,,---,0.00,VWS V13.01,2013-12-08 06:20:00,
2013-12-08 01:25:00,19.6,15.3,30.74,WNW,294,3.0,7.0,83,0.00,,---,0.00,VWS V13.01,2013-12-08 06:25:00,
2013-12-08 01:30:00,19.5,15.2,30.75,WNW,294,2.0,5.0,83,0.00,,---,0.00,VWS V13.01,2013-12-08 06:30:00,
2013-12-08 01:35:00,19.5,15.5,30.75,WNW,294,1.0,5.0,84,0.00,,---,0.00,VWS V13.01,2013-12-08 06:35:00,
2013-12-08 01:40:00,19.5,15.5,30.75,WNW,294,4.0,5.0,84,0.00,,---,0.00,VWS V13.01,2013-12-08 06:40:00,
2013-12-08 01:46:00,19.5,15.2,30.74,WNW,294,2.0,5.0,83,0.00,,---,0.00,VWS V13.01,2013-12-08 06:46:00,
2013-12-08 01:51:00,19.4,15.4,30.74,WNW,294,2.0,5.0,84,0.00,,---,0.00,VWS V13.01,2013-12-08 06:51:00,
2013-12-08 01:56:00,19.3,15.3,30.74,WNW,294,1.0,5.0,84,0.00,,---,0.00,VWS V13.01,2013-12-08 06:56:00,
2013-12-08 02:01:00,19.1,15.1,30.74,WNW,294,1.0,2.0,84,0.00,,---,0.00,VWS V13.01,2013-12-08 07:01:00,
2013-12-08 02:06:00,19.0,15.0,30.74,WNW,294,0.0,2.0,84,0.00,,---,0.00,VWS V13.01,2013-12-08 07:06:00,
2013-12-08 02:11:00,18.9,15.1,30.74,WNW,294,0.0,2.0,85,0.00,,---,0.00,VWS V13.01,2013-12-08 07:11:00,
2013-12-08 02:16:00,18.9,15.1,30.74,WNW,294,0.0,2.0,85,0.00,,---,0.00,VWS V13.01,2013-12-08 07:16:00,
2013-12-08 02:21:00,18.9,15.1,30.74,WNW,294,0.0,2.0,85,0.00,,---,0.00,VWS V13.01,2013-12-08 07:21:00,
2013-12-08 02:26:00,18.8,15.1,30.74,WNW,294,0.0,2.0,85,0.00,,---,0.00,VWS V13.01,2013-12-08 07:26:00,
2013-12-08 02:31:00,18.7,15.2,30.74,WNW,294,0.0,0.0,86,0.00,,---,0.00,VWS V13.01,2013-12-08 07:31:00,
2013-12-08 02:36:00,18.7,15.2,30.74,WNW,294,0.0,0.0,86,0.00,,---,0.00,VWS V13.01,2013-12-08 07:36:00,
2013-12-08 02:41:00,18.6,15.4,30.74,WNW,294,0.0,0.0,87,0.00,,---,0.00,VWS V13.01,2013-12-08 07:41:00,
2013-12-08 02:46:00,18.5,15.0,30.74,WNW,294,0.0,0.0,86,0.00,,---,0.00,VWS V13.01,2013-12-08 07:46:00,
2013-12-08 02:51:00,18.3,15.1,30.74,WNW,294,0.0,0.0,87,0.00,,---,0.00,VWS V13.01,2013-12-08 07:51:00,
2013-12-08 02:56:00,18.1,14.9,30.74,WNW,294,0.0,0.0,87,0.00,,---,0.00,VWS V13.01,2013-12-08 07:56:00,
2013-12-08 03:01:00,17.9,14.7,30.74,WNW,294,0.0,0.0,87,0.00,,---,0.00,VWS V13.01,2013-12-08 08:01:00,
2013-12-08 03:06:00,17.7,14.5,30.74,WNW,294,0.0,0.0,87,0.00,,---,0.00,VWS V13.01,2013-12-08 08:06:00,
2013-12-08 03:12:00,17.5,14.3,30.73,WNW,294,0.0,0.0,87,0.00,,---,0.00,VWS V13.01,2013-12-08 08:12:00,
2013-12-08 03:17:00,17.4,14.5,30.73,WNW,294,0.0,0.0,88,0.00,,---,0.00,VWS V13.01,2013-12-08 08:17:00,
2013-12-08 03:22:00,17.2,14.3,30.73,WNW,294,0.0,0.0,88,0.00,,---,0.00,VWS V13.01,2013-12-08 08:22:00,
2013-12-08 03:27:00,17.1,14.2,30.73,WNW,294,0.0,0.0,88,0.00,,---,0.00,VWS V13.01,2013-12-08 08:27:00,
2013-12-08 03:32:00,17.0,14.1,30.72,WNW,294,0.0,0.0,88,0.00,,---,0.00,VWS V13.01,2013-12-08 08:32:00,
2013-12-08 03:37:00,17.0,14.3,30.72,WNW,294,0.0,0.0,89,0.00,,---,0.00,VWS V13.01,2013-12-08 08:37:00,
2013-12-08 03:42:00,16.9,14.2,30.73,WNW,294,0.0,0.0,89,0.00,,---,0.00,VWS V13.01,2013-12-08 08:42:00,
2013-12-08 03:47:00,16.8,14.1,30.73,WNW,294,0.0,0.0,89,0.00,,---,0.00,VWS V13.01,2013-12-08 08:47:00,
2013-12-08 03:52:00,16.8,14.1,30.73,WNW,294,0.0,0.0,89,0.00,,---,0.00,VWS V13.01,2013-12-08 08:52:00,
2013-12-08 03:57:00,16.7,14.0,30.73,WNW,294,0.0,0.0,89,0.00,,---,0.00,VWS V13.01,2013-12-08 08:57:00,
2013-12-08 04:02:00,16.6,13.9,30.73,WNW,294,0.0,0.0,89,0.00,,---,0.00,VWS V13.01,2013-12-08 09:02:00,
2013-12-08 04:07:00,16.5,13.8,30.73,WNW,294,0.0,0.0,89,0.00,,---,0.00,VWS V13.01,2013-12-08 09:07:00,
2013-12-08 04:12:00,16.4,13.7,30.74,WNW,294,0.0,0.0,89,0.00,,---,0.00,VWS V13.01,2013-12-08 09:12:00,
2013-12-08 04:17:00,16.4,13.7,30.73,WNW,294,0.0,0.0,89,0.00,,---,0.00,VWS V13.01,2013-12-08 09:17:00,
2013-12-08 04:23:00,16.3,13.9,30.73,WNW,294,0.0,0.0,90,0.00,,---,0.00,VWS V13.01,2013-12-08 09:23:00,
2013-12-08 04:28:00,16.3,13.9,30.73,WNW,294,0.0,0.0,90,0.00,,---,0.00,VWS V13.01,2013-12-08 09:28:00,
2013-12-08 04:33:00,16.2,13.8,30.72,WNW,294,0.0,0.0,90,0.00,,---,0.00,VWS V13.01,2013-12-08 09:33:00,
2013-12-08 04:38:00,16.2,13.8,30.72,WNW,294,0.0,0.0,90,0.00,,---,0.00,VWS V13.01,2013-12-08 09:38:00,
2013-12-08 04:43:00,16.3,13.9,30.72,WNW,294,0.0,0.0,90,0.00,,---,0.00,VWS V13.01,2013-12-08 09:43:00,
2013-12-08 04:48:00,16.3,13.9,30.72,WNW,294,0.0,0.0,90,0.00,,---,0.00,VWS V13.01,2013-12-08 09:48:00,
2013-12-08 04:53:00,16.4,14.0,30.73,WNW,294,0.0,0.0,90,0.00,,---,0.00,VWS V13.01,2013-12-08 09:53:00,
2013-12-08 04:58:00,16.3,13.9,30.72,WNW,294,0.0,0.0,90,0.00,,---,0.00,VWS V13.01,2013-12-08 09:58:00,
2013-12-08 05:03:00,16.3,13.9,30.73,WNW,294,0.0,0.0,90,0.00,,---,0.00,VWS V13.01,2013-12-08 10:03:00,
2013-12-08 05:08:00,16.2,13.8,30.73,WNW,294,0.0,0.0,90,0.00,,---,0.00,VWS V13.01,2013-12-08 10:08:00,
2013-12-08 05:13:00,16.2,13.8,30.73,WNW,294,0.0,0.0,90,0.00,,---,0.00,VWS V13.01,2013-12-08 10:13:00,
2013-12-08 05:18:00,16.1,13.9,30.73,WNW,294,0.0,0.0,91,0.00,,---,0.00,VWS V13.01,2013-12-08 10:18:00,
2013-12-08 05:23:00,16.1,13.9,30.73,WNW,294,0.0,0.0,91,0.00,,---,0.00,VWS V13.01,2013-12-08 10:23:00,
2013-12-08 05:28:00,16.0,13.8,30.73,WNW,294,0.0,0.0,91,0.00,,---,0.00,VWS V13.01,2013-12-08 10:28:00,
2013-12-08 05:33:00,15.9,13.7,30.74,WNW,294,0.0,0.0,91,0.00,,---,0.00,VWS V13.01,2013-12-08 10:33:00,
2013-12-08 05:38:00,15.9,13.7,30.74,WNW,294,0.0,0.0,91,0.00,,---,0.00,VWS V13.01,2013-12-08 10:38:00,
2013-12-08 05:43:00,16.0,13.8,30.73,WNW,294,0.0,0.0,91,0.00,,---,0.00,VWS V13.01,2013-12-08 10:43:00,
2013-12-08 05:49:00,16.1,13.9,30.73,WNW,294,0.0,0.0,91,0.00,,---,0.00,VWS V13.01,2013-12-08 10:49:00,
2013-12-08 05:54:00,16.2,14.0,30.72,WNW,294,0.0,0.0,91,0.00,,---,0.00,VWS V13.01,2013-12-08 10:54:00,
2013-12-08 05:59:00,16.3,14.1,30.73,WNW,294,0.0,0.0,91,0.00,,---,0.00,VWS V13.01,2013-12-08 10:59:00,
2013-12-08 06:04:00,16.4,14.2,30.73,WNW,294,0.0,0.0,91,0.00,,---,0.00,VWS V13.01,2013-12-08 11:04:00,
2013-12-08 06:09:00,16.5,14.3,30.74,WNW,294,0.0,0.0,91,0.00,,---,0.00,VWS V13.01,2013-12-08 11:09:00,
2013-12-08 06:14:00,16.5,14.3,30.74,WNW,294,0.0,0.0,91,0.00,,---,0.00,VWS V13.01,2013-12-08 11:14:00,
2013-12-08 06:19:00,16.6,14.4,30.74,WNW,294,0.0,0.0,91,0.00,,---,0.00,VWS V13.01,2013-12-08 11:19:00,
2013-12-08 06:24:00,16.6,14.7,30.74,WNW,294,0.0,0.0,92,0.00,,---,0.00,VWS V13.01,2013-12-08 11:24:00,
2013-12-08 06:29:00,16.6,14.4,30.75,WNW,294,0.0,0.0,91,0.00,,---,0.00,VWS V13.01,2013-12-08 11:29:00,
2013-12-08 06:34:00,16.6,14.4,30.74,WNW,294,0.0,0.0,91,0.00,,---,0.00,VWS V13.01,2013-12-08 11:34:00,
2013-12-08 06:39:00,16.7,14.5,30.75,WNW,294,0.0,0.0,91,0.00,,---,0.00,VWS V13.01,2013-12-08 11:39:00,
2013-12-08 06:44:00,16.7,14.5,30.75,WNW,294,0.0,0.0,91,0.00,,---,0.00,VWS V13.01,2013-12-08 11:44:00,
2013-12-08 06:49:00,16.8,14.6,30.74,WNW,294,0.0,0.0,91,0.00,,---,0.00,VWS V13.01,2013-12-08 11:49:00,
2013-12-08 06:54:00,16.8,14.6,30.74,WNW,294,0.0,0.0,91,0.00,,---,0.00,VWS V13.01,2013-12-08 11:54:00,
2013-12-08 06:59:00,16.9,14.7,30.74,WNW,294,0.0,0.0,91,0.00,,---,0.00,VWS V13.01,2013-12-08 11:59:00,
2013-12-08 07:04:00,16.9,14.7,30.75,WNW,294,0.0,0.0,91,0.00,,---,0.00,VWS V13.01,2013-12-08 12:04:00,
2013-12-08 07:10:00,17.0,14.8,30.75,WNW,294,0.0,2.0,91,0.00,,---,0.00,VWS V13.01,2013-12-08 12:10:00,
2013-12-08 07:15:00,17.1,14.9,30.74,WNW,294,0.0,2.0,91,0.00,,---,0.00,VWS V13.01,2013-12-08 12:15:00,
2013-12-08 07:20:00,17.3,15.1,30.75,WNW,294,0.0,2.0,91,0.00,,---,0.00,VWS V13.01,2013-12-08 12:20:00,
2013-12-08 07:25:00,17.4,15.2,30.75,WNW,294,0.0,2.0,91,0.00,,---,0.00,VWS V13.01,2013-12-08 12:25:00,
2013-12-08 07:30:00,17.5,15.3,30.76,WNW,294,0.0,1.0,91,0.00,,---,0.00,VWS V13.01,2013-12-08 12:30:00,
2013-12-08 07:35:00,17.5,15.3,30.77,WNW,294,0.0,1.0,91,0.00,,---,0.00,VWS V13.01,2013-12-08 12:35:00,
2013-12-08 07:40:00,17.6,15.4,30.77,WNW,294,0.0,1.0,91,0.00,,---,0.00,VWS V13.01,2013-12-08 12:40:00,
2013-12-08 07:45:00,17.6,15.4,30.77,WNW,294,0.0,1.0,91,0.00,,---,0.00,VWS V13.01,2013-12-08 12:45:00,
2013-12-08 07:50:00,17.6,15.4,30.76,WNW,294,0.0,1.0,91,0.00,,---,0.00,VWS V13.01,2013-12-08 12:50:00,
2013-12-08 07:55:00,17.7,15.5,30.76,WNW,294,0.0,1.0,91,0.00,,---,0.00,VWS V13.01,2013-12-08 12:55:00,
2013-12-08 08:00:00,17.7,15.5,30.75,WNW,294,0.0,0.0,91,0.00,,---,0.00,VWS V13.01,2013-12-08 13:00:00,
2013-12-08 08:05:00,17.8,15.6,30.76,WNW,294,0.0,0.0,91,0.00,,---,0.00,VWS V13.01,2013-12-08 13:05:00,
2013-12-08 08:10:00,17.9,15.7,30.76,WNW,294,0.0,0.0,91,0.00,,---,0.00,VWS V13.01,2013-12-08 13:10:00,
2013-12-08 08:15:00,17.9,15.5,30.75,WNW,294,0.0,0.0,90,0.00,,---,0.00,VWS V13.01,2013-12-08 13:15:00,
2013-12-08 08:20:00,18.0,15.6,30.75,WNW,294,0.0,0.0,90,0.00,,---,0.00,VWS V13.01,2013-12-08 13:20:00,
2013-12-08 08:26:00,18.1,15.7,30.76,WNW,294,0.0,1.0,90,0.00,,---,0.00,VWS V13.01,2013-12-08 13:26:00,
2013-12-08 08:31:00,18.1,15.7,30.75,WNW,294,0.0,0.0,90,0.00,,---,0.00,VWS V13.01,2013-12-08 13:31:00,
2013-12-08 08:36:00,18.2,15.8,30.74,WNW,294,0.0,0.0,90,0.00,,---,0.00,VWS V13.01,2013-12-08 13:36:00,
2013-12-08 08:41:00,18.3,15.9,30.75,WNW,294,0.0,0.0,90,0.00,,---,0.00,VWS V13.01,2013-12-08 13:41:00,
2013-12-08 08:46:00,18.4,16.0,30.74,WNW,294,0.0,0.0,90,0.00,,---,0.00,VWS V13.01,2013-12-08 13:46:00,
2013-12-08 08:51:00,18.5,16.1,30.74,WNW,294,0.0,0.0,90,0.00,,---,0.00,VWS V13.01,2013-12-08 13:51:00,
2013-12-08 08:56:00,18.6,16.2,30.74,WNW,294,0.0,0.0,90,0.00,,---,0.00,VWS V13.01,2013-12-08 13:56:00,
2013-12-08 09:01:00,18.8,16.4,30.74,WNW,294,0.0,0.0,90,0.00,,---,0.00,VWS V13.01,2013-12-08 14:01:00,
2013-12-08 09:06:00,18.9,16.2,30.74,WNW,294,0.0,0.0,89,0.00,,---,0.00,VWS V13.01,2013-12-08 14:06:00,
2013-12-08 09:11:00,18.9,15.9,30.74,WNW,294,0.0,0.0,88,0.00,,---,0.00,VWS V13.01,2013-12-08 14:11:00,
2013-12-08 09:16:00,19.0,16.0,30.73,WNW,294,0.0,0.0,88,0.00,,---,0.00,VWS V13.01,2013-12-08 14:16:00,
2013-12-08 09:21:00,19.3,16.3,30.72,WNW,294,0.0,0.0,88,0.00,,---,0.00,VWS V13.01,2013-12-08 14:21:00,
2013-12-08 09:26:00,19.3,16.3,30.72,WNW,294,0.0,0.0,88,0.00,,---,0.00,VWS V13.01,2013-12-08 14:26:00,
2013-12-08 09:31:00,19.5,16.5,30.72,WNW,294,0.0,0.0,88,0.00,,---,0.00,VWS V13.01,2013-12-08 14:31:00,
2013-12-08 09:36:00,19.7,16.5,30.73,WNW,294,0.0,0.0,87,0.00,,---,0.00,VWS V13.01,2013-12-08 14:36:00,
2013-12-08 09:41:00,19.7,16.5,30.72,WNW,294,0.0,1.0,87,0.00,,---,0.00,VWS V13.01,2013-12-08 14:41:00,
2013-12-08 09:46:00,19.9,16.4,30.73,WNW,294,0.0,1.0,86,0.00,,---,0.00,VWS V13.01,2013-12-08 14:46:00,
2013-12-08 09:52:00,20.0,16.5,30.73,WNW,294,0.0,1.0,86,0.00,,---,0.00,VWS V13.01,2013-12-08 14:52:00,
2013-12-08 09:57:00,20.1,16.0,30.73,WNW,294,2.0,5.0,84,0.00,,---,0.00,VWS V13.01,2013-12-08 14:57:00,
2013-12-08 10:02:00,20.2,16.1,30.72,WNW,295,5.0,5.0,84,0.00,,---,0.00,VWS V13.01,2013-12-08 15:02:00,
2013-12-08 10:07:00,20.3,16.0,30.73,WNW,296,0.0,5.0,83,0.00,,---,0.00,VWS V13.01,2013-12-08 15:07:00,
2013-12-08 10:12:00,20.5,16.2,30.73,WNW,296,5.0,5.0,83,0.00,,---,0.00,VWS V13.01,2013-12-08 15:12:00,
2013-12-08 10:17:00,20.6,16.3,30.73,WNW,298,0.0,5.0,83,0.00,,---,0.00,VWS V13.01,2013-12-08 15:17:00,
2013-12-08 10:22:00,20.7,16.1,30.73,WNW,298,0.0,5.0,82,0.00,,---,0.00,VWS V13.01,2013-12-08 15:22:00,
2013-12-08 10:27:00,20.8,16.2,30.72,WNW,298,0.0,5.0,82,0.00,,---,0.00,VWS V13.01,2013-12-08 15:27:00,
2013-12-08 10:32:00,20.9,16.0,30.72,WNW,298,0.0,0.0,81,0.00,,---,0.00,VWS V13.01,2013-12-08 15:32:00,
2013-12-08 10:37:00,21.0,15.8,30.72,WNW,298,0.0,6.0,80,0.00,,---,0.00,VWS V13.01,2013-12-08 15:37:00,
2013-12-08 10:42:00,21.2,16.0,30.72,WNW,299,0.0,6.0,80,0.00,,---,0.00,VWS V13.01,2013-12-08 15:42:00,
2013-12-08 10:48:00,21.3,16.1,30.72,WNW,301,5.0,6.0,80,0.00,,---,0.00,VWS V13.01,2013-12-08 15:48:00,
2013-12-08 10:53:00,21.5,16.3,30.71,WNW,302,0.0,6.0,80,0.00,,---,0.00,VWS V13.01,2013-12-08 15:53:00,
2013-12-08 10:58:00,21.5,16.0,30.72,NW,307,6.0,6.0,79,0.00,,---,0.00,VWS V13.01,2013-12-08 15:58:00,
2013-12-08 11:03:00,21.6,15.8,30.72,NNE,30,6.0,8.0,78,0.00,,---,0.00,VWS V13.01,2013-12-08 16:03:00,
2013-12-08 11:08:00,21.6,15.2,30.71,ENE,73,5.0,10.0,76,0.00,,---,0.00,VWS V13.01,2013-12-08 16:08:00,
2013-12-08 11:13:00,21.8,15.4,30.70,ENE,78,4.0,10.0,76,0.00,,---,0.00,VWS V13.01,2013-12-08 16:13:00,
2013-12-08 11:18:00,22.0,15.6,30.70,East,79,6.0,10.0,76,0.00,,---,0.00,VWS V13.01,2013-12-08 16:18:00,
2013-12-08 11:23:00,22.1,15.7,30.68,East,82,5.0,10.0,76,0.00,,---,0.00,VWS V13.01,2013-12-08 16:23:00,
2013-12-08 11:28:00,22.2,15.2,30.69,East,96,5.0,10.0,74,0.00,,---,0.00,VWS V13.01,2013-12-08 16:28:00,
2013-12-08 11:33:00,22.3,15.6,30.68,East,95,5.0,7.0,75,0.00,,---,0.00,VWS V13.01,2013-12-08 16:33:00,
2013-12-08 11:38:00,22.4,15.4,30.67,East,91,2.0,9.0,74,0.00,,---,0.00,VWS V13.01,2013-12-08 16:38:00,
2013-12-08 11:43:00,22.6,15.9,30.66,East,86,8.0,9.0,75,0.00,,---,0.00,VWS V13.01,2013-12-08 16:43:00,
2013-12-08 11:48:00,22.6,15.6,30.63,ESE,103,9.0,15.0,74,0.00,,---,0.00,VWS V13.01,2013-12-08 16:48:00,
2013-12-08 11:53:00,22.5,15.2,30.63,SE,136,4.0,15.0,73,0.00,,---,0.00,VWS V13.01,2013-12-08 16:53:00,
2013-12-08 11:58:00,22.7,15.7,30.63,East,83,5.0,15.0,74,0.00,,---,0.00,VWS V13.01,2013-12-08 16:58:00,
2013-12-08 12:04:00,22.7,15.4,30.63,ESE,102,6.0,12.0,73,0.00,,---,0.00,VWS V13.01,2013-12-08 17:04:00,
2013-12-08 12:09:00,22.9,15.9,30.63,East,92,6.0,12.0,74,0.00,,---,0.00,VWS V13.01,2013-12-08 17:09:00,
2013-12-08 12:14:00,23.0,15.3,30.63,East,99,0.0,12.0,72,0.00,,---,0.00,VWS V13.01,2013-12-08 17:14:00,
2013-12-08 12:19:00,23.0,15.3,30.63,ESE,105,5.0,12.0,72,0.00,,---,0.00,VWS V13.01,2013-12-08 17:19:00,
2013-12-08 12:24:00,23.1,15.4,30.62,East,98,5.0,12.0,72,0.00,,---,0.00,VWS V13.01,2013-12-08 17:24:00,
2013-12-08 12:29:00,23.1,15.4,30.61,ESE,105,7.0,14.0,72,0.00,,---,0.00,VWS V13.01,2013-12-08 17:29:00,
2013-12-08 12:34:00,23.1,15.4,30.61,ESE,102,7.0,11.0,72,0.00,,---,0.00,VWS V13.01,2013-12-08 17:34:00,
2013-12-08 12:39:00,23.1,15.1,30.61,East,93,1.0,11.0,71,0.00,,---,0.00,VWS V13.01,2013-12-08 17:39:00,
2013-12-08 12:44:00,23.3,15.3,30.61,East,89,5.0,11.0,71,0.00,,---,0.00,VWS V13.01,2013-12-08 17:44:00,
2013-12-08 12:49:00,23.3,15.3,30.61,East,98,2.0,11.0,71,0.00,,---,0.00,VWS V13.01,2013-12-08 17:49:00,
2013-12-08 12:54:00,23.5,15.5,30.61,East,101,5.0,11.0,71,0.00,,---,0.00,VWS V13.01,2013-12-08 17:54:00,
2013-12-08 12:59:00,23.6,15.3,30.61,ESE,102,6.0,11.0,70,0.00,,---,0.00,VWS V13.01,2013-12-08 17:59:00,
2013-12-08 13:04:00,23.7,15.4,30.63,ESE,103,2.0,7.0,70,0.00,,---,0.00,VWS V13.01,2013-12-08 18:04:00,
2013-12-08 13:09:00,23.8,15.5,30.63,East,98,1.0,7.0,70,0.00,,---,0.00,VWS V13.01,2013-12-08 18:09:00,
2013-12-08 13:14:00,23.9,15.2,30.62,East,94,1.0,7.0,69,0.00,,---,0.00,VWS V13.01,2013-12-08 18:14:00,
2013-12-08 13:20:00,23.9,15.2,30.63,East,98,0.0,9.0,69,0.00,,---,0.00,VWS V13.01,2013-12-08 18:20:00,
2013-12-08 13:25:00,24.0,15.3,30.62,East,97,0.0,9.0,69,0.00,,---,0.00,VWS V13.01,2013-12-08 18:25:00,
2013-12-08 13:30:00,24.0,15.3,30.62,East,83,6.0,9.0,69,0.00,,---,0.00,VWS V13.01,2013-12-08 18:30:00,
2013-12-08 13:35:00,24.1,15.4,30.62,East,93,8.0,10.0,69,0.00,,---,0.00,VWS V13.01,2013-12-08 18:35:00,
2013-12-08 13:40:00,24.0,15.3,30.62,East,101,4.0,10.0,69,0.00,,---,0.00,VWS V13.01,2013-12-08 18:40:00,
2013-12-08 13:45:00,24.1,15.4,30.61,East,101,4.0,10.0,69,0.00,,---,0.00,VWS V13.01,2013-12-08 18:45:00,
2013-12-08 13:50:00,24.0,15.6,30.61,East,92,5.0,10.0,70,0.00,,---,0.00,VWS V13.01,2013-12-08 18:50:00,
2013-12-08 13:55:00,24.2,16.2,30.60,East,85,7.0,10.0,71,0.00,,---,0.00,VWS V13.01,2013-12-08 18:55:00,
2013-12-08 14:00:00,24.2,16.5,30.60,East,101,8.0,9.0,72,0.00,,---,0.00,VWS V13.01,2013-12-08 19:00:00,
2013-12-08 14:05:00,24.1,16.1,30.59,East,99,4.0,10.0,71,0.00,,---,0.00,VWS V13.01,2013-12-08 19:05:00,
2013-12-08 14:10:00,24.2,15.8,30.59,East,101,5.0,10.0,70,0.00,,---,0.00,VWS V13.01,2013-12-08 19:10:00,
2013-12-08 14:15:00,24.1,15.8,30.58,ESE,110,6.0,10.0,70,0.00,,---,0.00,VWS V13.01,2013-12-08 19:15:00,
2013-12-08 14:20:00,24.2,16.2,30.58,East,94,5.0,10.0,71,0.00,,---,0.00,VWS V13.01,2013-12-08 19:20:00,
2013-12-08 14:25:00,24.2,15.8,30.58,East,96,4.0,10.0,70,0.00,,---,0.00,VWS V13.01,2013-12-08 19:25:00,
2013-12-08 14:30:00,24.2,15.8,30.57,East,100,5.0,6.0,70,0.00,,---,0.00,VWS V13.01,2013-12-08 19:30:00,
2013-12-08 14:35:00,24.2,16.2,30.57,East,99,4.0,7.0,71,0.00,,---,0.00,VWS V13.01,2013-12-08 19:35:00,
2013-12-08 14:40:00,24.2,15.8,30.57,East,94,1.0,8.0,70,0.00,,---,0.00,VWS V13.01,2013-12-08 19:40:00,
2013-12-08 14:46:00,24.3,15.9,30.57,East,98,3.0,8.0,70,0.00,,---,0.00,VWS V13.01,2013-12-08 19:46:00,
2013-12-08 14:51:00,24.2,16.5,30.57,ESE,115,5.0,10.0,72,0.00,,---,0.00,VWS V13.01,2013-12-08 19:51:00,
2013-12-08 14:56:00,24.1,16.1,30.56,ESE,117,6.0,14.0,71,0.00,,---,0.00,VWS V13.01,2013-12-08 19:56:00,
2013-12-08 15:01:00,24.2,16.2,30.57,SE,130,4.0,7.0,71,0.00,,---,0.00,VWS V13.01,2013-12-08 20:01:00,
2013-12-08 15:06:00,24.3,16.6,30.56,ESE,114,5.0,8.0,72,0.00,,---,0.00,VWS V13.01,2013-12-08 20:06:00,
2013-12-08 15:11:00,24.4,16.7,30.55,East,99,7.0,9.0,72,0.00,,---,0.00,VWS V13.01,2013-12-08 20:11:00,
2013-12-08 15:16:00,24.4,16.7,30.55,ESE,114,9.0,10.0,72,0.00,,---,0.00,VWS V13.01,2013-12-08 20:16:00,
2013-12-08 15:21:00,24.5,16.5,30.55,East,96,4.0,10.0,71,0.00,,---,0.00,VWS V13.01,2013-12-08 20:21:00,
2013-12-08 15:26:00,24.5,16.1,30.55,East,98,1.0,10.0,70,0.00,,---,0.00,VWS V13.01,2013-12-08 20:26:00,
2013-12-08 15:31:00,24.5,16.1,30.55,East,93,5.0,5.0,70,0.00,,---,0.00,VWS V13.01,2013-12-08 20:31:00,
2013-12-08 15:36:00,24.4,16.4,30.54,East,96,0.0,7.0,71,0.00,,---,0.00,VWS V13.01,2013-12-08 20:36:00,
2013-12-08 15:41:00,24.4,16.7,30.53,ESE,105,6.0,11.0,72,0.00,,---,0.00,VWS V13.01,2013-12-08 20:41:00,
2013-12-08 15:46:00,24.4,16.7,30.53,ESE,111,7.0,11.0,72,0.00,,---,0.00,VWS V13.01,2013-12-08 20:46:00,
2013-12-08 15:52:00,24.4,16.7,30.54,East,96,5.0,11.0,72,0.00,,---,0.00,VWS V13.01,2013-12-08 20:52:00,
2013-12-08 15:57:00,24.3,16.6,30.53,East,101,4.0,11.0,72,0.00,,---,0.00,VWS V13.01,2013-12-08 20:57:00,
2013-12-08 16:02:00,24.3,16.3,30.53,ESE,108,5.0,10.0,71,0.00,,---,0.00,VWS V13.01,2013-12-08 21:02:00,
2013-12-08 16:07:00,24.3,16.3,30.54,East,99,8.0,11.0,71,0.00,,---,0.00,VWS V13.01,2013-12-08 21:07:00,
2013-12-08 16:12:00,24.3,16.6,30.54,East,100,9.0,13.0,72,0.00,,---,0.00,VWS V13.01,2013-12-08 21:12:00,
2013-12-08 16:17:00,24.3,16.6,30.54,ESE,109,6.0,13.0,72,0.00,,---,0.00,VWS V13.01,2013-12-08 21:17:00,
2013-12-08 16:22:00,24.4,16.4,30.54,ESE,113,4.0,13.0,71,0.00,,---,0.00,VWS V13.01,2013-12-08 21:22:00,
2013-12-08 16:27:00,24.4,17.0,30.53,East,88,5.0,13.0,73,0.00,,---,0.00,VWS V13.01,2013-12-08 21:27:00,
2013-12-08 16:32:00,24.4,17.0,30.53,East,86,7.0,8.0,73,0.00,,---,0.00,VWS V13.01,2013-12-08 21:32:00,
2013-12-08 16:37:00,24.4,17.0,30.52,East,92,6.0,9.0,73,0.00,,---,0.00,VWS V13.01,2013-12-08 21:37:00,
2013-12-08 16:42:00,24.3,17.2,30.52,East,91,6.0,9.0,74,0.00,,---,0.00,VWS V13.01,2013-12-08 21:42:00,
2013-12-08 16:47:00,24.3,17.2,30.52,East,90,0.0,9.0,74,0.00,,---,0.00,VWS V13.01,2013-12-08 21:47:00,
2013-12-08 16:52:00,24.4,17.3,30.52,East,82,7.0,10.0,74,0.00,,---,0.00,VWS V13.01,2013-12-08 21:52:00,
2013-12-08 16:57:00,24.3,17.2,30.51,East,94,5.0,10.0,74,0.00,,---,0.00,VWS V13.01,2013-12-08 21:57:00,
2013-12-08 17:02:00,24.3,17.2,30.51,East,92,6.0,8.0,74,0.00,,---,0.00,VWS V13.01,2013-12-08 22:02:00,
2013-12-08 17:07:00,24.3,17.5,30.51,ESE,111,8.0,11.0,75,0.00,,---,0.00,VWS V13.01,2013-12-08 22:07:00,
2013-12-08 17:13:00,24.3,17.2,30.50,East,101,7.0,11.0,74,0.00,,---,0.00,VWS V13.01,2013-12-08 22:13:00,
2013-12-08 17:18:00,24.2,17.7,30.50,ESE,107,7.0,12.0,76,0.00,,---,0.00,VWS V13.01,2013-12-08 22:18:00,
2013-12-08 17:23:00,24.0,17.5,30.49,ESE,110,9.0,14.0,76,0.00,,---,0.00,VWS V13.01,2013-12-08 22:23:00,
2013-12-08 17:28:00,23.9,17.8,30.49,ESE,114,6.0,14.0,77,0.00,,---,0.00,VWS V13.01,2013-12-08 22:28:00,
2013-12-08 17:33:00,24.0,17.9,30.48,East,96,11.0,13.0,77,0.00,,---,0.00,VWS V13.01,2013-12-08 22:33:00,
2013-12-08 17:38:00,23.9,18.0,30.48,ESE,109,11.0,18.0,78,0.00,,---,0.00,VWS V13.01,2013-12-08 22:38:00,
2013-12-08 17:43:00,23.9,18.4,30.48,ESE,109,7.0,18.0,79,0.00,,---,0.00,VWS V13.01,2013-12-08 22:43:00,
2013-12-08 17:48:00,23.9,18.4,30.47,East,91,5.0,18.0,79,0.00,,---,0.00,VWS V13.01,2013-12-08 22:48:00,
2013-12-08 17:53:00,23.9,18.4,30.48,East,92,5.0,18.0,79,0.00,,---,0.00,VWS V13.01,2013-12-08 22:53:00,
2013-12-08 17:58:00,23.9,18.6,30.47,ESE,102,6.0,18.0,80,0.00,,---,0.00,VWS V13.01,2013-12-08 22:58:00,
2013-12-08 18:03:00,23.9,18.9,30.46,East,82,11.0,14.0,81,0.00,,---,0.00,VWS V13.01,2013-12-08 23:03:00,
2013-12-08 18:08:00,23.8,18.8,30.47,ENE,67,5.0,14.0,81,0.00,,---,0.00,VWS V13.01,2013-12-08 23:08:00,
2013-12-08 18:13:00,23.8,18.8,30.47,East,87,3.0,14.0,81,0.00,,---,0.00,VWS V13.01,2013-12-08 23:13:00,
2013-12-08 18:18:00,23.8,18.8,30.47,ENE,63,2.0,14.0,81,0.00,,---,0.00,VWS V13.01,2013-12-08 23:18:00,
2013-12-08 18:23:00,23.7,19.0,30.47,East,80,5.0,14.0,82,0.00,,---,0.00,VWS V13.01,2013-12-08 23:23:00,
2013-12-08 18:28:00,23.7,19.3,30.46,East,84,7.0,14.0,83,0.00,,---,0.00,VWS V13.01,2013-12-08 23:28:00,
2013-12-08 18:34:00,23.6,19.2,30.45,East,98,4.0,10.0,83,0.00,,---,0.00,VWS V13.01,2013-12-08 23:34:00,
2013-12-08 18:39:00,23.7,19.0,30.46,ESE,106,5.0,12.0,82,0.00,,---,0.00,VWS V13.01,2013-12-08 23:39:00,
2013-12-08 18:44:00,23.7,19.3,30.46,East,94,10.0,12.0,83,0.00,,---,0.00,VWS V13.01,2013-12-08 23:44:00,
2013-12-08 18:49:00,23.6,19.2,30.46,East,101,5.0,12.0,83,0.00,,---,0.00,VWS V13.01,2013-12-08 23:49:00,
2013-12-08 18:54:00,23.6,19.2,30.45,East,101,8.0,12.0,83,0.00,,---,0.00,VWS V13.01,2013-12-08 23:54:00,
2013-12-08 18:59:00,23.5,19.4,30.45,East,95,7.0,12.0,84,0.00,,---,0.00,VWS V13.01,2013-12-08 23:59:00,
2013-12-08 19:04:00,23.4,19.3,30.45,East,94,3.0,10.0,84,0.00,,---,0.00,VWS V13.01,2013-12-09 00:04:00,
2013-12-08 19:09:00,23.4,19.6,30.44,East,84,7.0,10.0,85,0.00,,---,0.00,VWS V13.01,2013-12-09 00:09:00,
2013-12-08 19:14:00,23.3,19.2,30.45,East,86,5.0,13.0,84,0.00,,---,0.00,VWS V13.01,2013-12-09 00:14:00,
2013-12-08 19:19:00,23.4,19.3,30.45,East,80,8.0,18.0,84,0.00,,---,0.00,VWS V13.01,2013-12-09 00:19:00,
2013-12-08 19:24:00,23.4,19.3,30.44,East,88,7.0,18.0,84,0.00,,---,0.00,VWS V13.01,2013-12-09 00:24:00,
2013-12-08 19:29:00,23.5,19.1,30.43,East,87,9.0,18.0,83,0.00,,---,0.00,VWS V13.01,2013-12-09 00:29:00,
2013-12-08 19:34:00,23.5,19.1,30.43,East,95,10.0,14.0,83,0.00,,---,0.00,VWS V13.01,2013-12-09 00:34:00,
2013-12-08 19:39:00,23.5,19.1,30.43,ENE,76,6.0,14.0,83,0.00,,---,0.00,VWS V13.01,2013-12-09 00:39:00,
2013-12-08 19:44:00,23.5,19.1,30.42,ENE,78,5.0,14.0,83,0.00,,---,0.00,VWS V13.01,2013-12-09 00:44:00,
2013-12-08 19:50:00,23.5,19.1,30.43,East,83,5.0,14.0,83,0.00,,---,0.00,VWS V13.01,2013-12-09 00:50:00,
2013-12-08 19:55:00,23.6,19.2,30.42,ENE,76,5.0,14.0,83,0.00,,---,0.00,VWS V13.01,2013-12-09 00:55:00,
2013-12-08 20:00:00,23.6,19.2,30.42,ENE,71,6.0,6.0,83,0.00,,---,0.00,VWS V13.01,2013-12-09 01:00:00,
2013-12-08 20:05:00,23.7,19.0,30.42,East,84,5.0,19.0,82,0.00,,---,0.00,VWS V13.01,2013-12-09 01:05:00,
2013-12-08 20:10:00,23.8,19.1,30.41,ENE,73,5.0,19.0,82,0.00,,---,0.00,VWS V13.01,2013-12-09 01:10:00,
2013-12-08 20:15:00,23.8,19.4,30.41,ENE,78,6.0,19.0,83,0.00,,---,0.00,VWS V13.01,2013-12-09 01:15:00,
2013-12-08 20:20:00,23.8,19.1,30.41,East,86,6.0,19.0,82,0.00,,---,0.00,VWS V13.01,2013-12-09 01:20:00,
2013-12-08 20:25:00,23.9,19.2,30.40,East,91,5.0,19.0,82,0.00,,---,0.00,VWS V13.01,2013-12-09 01:25:00,
2013-12-08 20:30:00,23.9,19.2,30.40,ENE,64,9.0,10.0,82,0.00,,---,0.00,VWS V13.01,2013-12-09 01:30:00,
2013-12-08 20:35:00,23.9,19.2,30.40,East,80,8.0,12.0,82,0.00,,---,0.00,VWS V13.01,2013-12-09 01:35:00,
2013-12-08 20:40:00,23.9,19.2,30.40,East,94,4.0,12.0,82,0.00,,---,0.00,VWS V13.01,2013-12-09 01:40:00,
2013-12-08 20:45:00,23.9,19.2,30.40,East,83,7.0,12.0,82,0.00,,---,0.00,VWS V13.01,2013-12-09 01:45:00,
2013-12-08 20:50:00,23.9,19.2,30.39,East,94,16.0,16.0,82,0.00,,---,0.00,VWS V13.01,2013-12-09 01:50:00,
2013-12-08 20:55:00,23.9,19.2,30.39,ENE,64,6.0,16.0,82,0.00,,---,0.00,VWS V13.01,2013-12-09 01:55:00,
2013-12-08 21:00:00,24.0,19.6,30.39,ENE,61,5.0,10.0,83,0.00,,---,0.00,VWS V13.01,2013-12-09 02:00:00,
2013-12-08 21:05:00,24.0,19.6,30.39,ENE,71,8.0,19.0,83,0.00,,---,0.00,VWS V13.01,2013-12-09 02:05:00,
2013-12-08 21:10:00,23.9,19.5,30.39,East,80,7.0,19.0,83,0.00,,---,0.00,VWS V13.01,2013-12-09 02:10:00,
2013-12-08 21:16:00,24.0,19.6,30.39,ESE,107,7.0,19.0,83,0.00,,---,0.00,VWS V13.01,2013-12-09 02:16:00,
2013-12-08 21:21:00,24.0,19.6,30.39,East,83,7.0,19.0,83,0.00,,---,0.00,VWS V13.01,2013-12-09 02:21:00,
2013-12-08 21:26:00,24.0,19.9,30.39,East,93,6.0,19.0,84,0.00,,---,0.00,VWS V13.01,2013-12-09 02:26:00,
2013-12-08 21:31:00,24.0,19.6,30.38,East,87,2.0,7.0,83,0.00,,---,0.00,VWS V13.01,2013-12-09 02:31:00,
2013-12-08 21:36:00,24.0,19.9,30.38,ENE,76,7.0,9.0,84,0.00,,---,0.00,VWS V13.01,2013-12-09 02:36:00,
2013-12-08 21:41:00,24.0,19.9,30.38,ENE,67,5.0,9.0,84,0.00,,---,0.00,VWS V13.01,2013-12-09 02:41:00,
2013-12-08 21:46:00,24.1,20.2,30.37,ENE,75,0.0,11.0,85,0.00,,---,0.00,VWS V13.01,2013-12-09 02:46:00,
2013-12-08 21:51:00,24.1,20.2,30.37,East,86,8.0,11.0,85,0.00,,---,0.00,VWS V13.01,2013-12-09 02:51:00,
2013-12-08 21:56:00,24.1,20.2,30.36,East,87,6.0,14.0,85,0.00,,---,0.00,VWS V13.01,2013-12-09 02:56:00,
2013-12-08 22:01:00,24.2,20.4,30.34,SE,129,11.0,16.0,85,0.00,,---,0.00,VWS V13.01,2013-12-09 03:01:00,
2013-12-08 22:06:00,24.3,20.5,30.34,ENE,77,12.0,16.0,85,0.00,,---,0.00,VWS V13.01,2013-12-09 03:06:00,
2013-12-08 22:11:00,24.3,20.5,30.32,East,80,7.0,16.0,85,0.00,,---,0.00,VWS V13.01,2013-12-09 03:11:00,
2013-12-08 22:16:00,24.4,20.5,30.32,East,91,8.0,16.0,85,0.00,,---,0.00,VWS V13.01,2013-12-09 03:16:00,
2013-12-08 22:21:00,24.5,20.6,30.31,ENE,67,8.0,16.0,85,0.00,,---,0.00,VWS V13.01,2013-12-09 03:21:00,
2013-12-08 22:26:00,24.5,20.9,30.31,NE,36,6.0,16.0,86,0.00,,---,0.00,VWS V13.01,2013-12-09 03:26:00,
2013-12-08 22:31:00,24.5,20.9,30.29,ENE,78,7.0,11.0,86,0.00,,---,0.00,VWS V13.01,2013-12-09 03:31:00,
2013-12-08 22:37:00,24.6,21.0,30.29,ENE,70,5.0,13.0,86,0.00,,---,0.00,VWS V13.01,2013-12-09 03:37:00,
2013-12-08 22:42:00,24.7,21.1,30.29,ENE,61,12.0,13.0,86,0.00,,---,0.00,VWS V13.01,2013-12-09 03:42:00,
2013-12-08 22:47:00,24.8,21.2,30.28,East,80,10.0,13.0,86,0.00,,---,0.00,VWS V13.01,2013-12-09 03:47:00,
2013-12-08 22:52:00,24.8,21.5,30.28,East,83,8.0,13.0,87,0.00,,---,0.00,VWS V13.01,2013-12-09 03:52:00,
2013-12-08 22:57:00,24.9,21.6,30.29,ENE,61,7.0,13.0,87,0.00,,---,0.00,VWS V13.01,2013-12-09 03:57:00,
2013-12-08 23:02:00,25.0,21.7,30.29,East,82,5.0,9.0,87,0.00,,---,0.00,VWS V13.01,2013-12-09 04:02:00,
2013-12-08 23:07:00,25.1,21.8,30.28,ENE,77,4.0,10.0,87,0.00,,---,0.00,VWS V13.01,2013-12-09 04:07:00,
2013-12-08 23:12:00,25.2,21.9,30.28,East,94,2.0,10.0,87,0.00,,---,0.00,VWS V13.01,2013-12-09 04:12:00,
2013-12-08 23:17:00,25.3,22.0,30.28,East,79,7.0,11.0,87,0.00,,---,0.00,VWS V13.01,2013-12-09 04:17:00,
2013-12-08 23:22:00,25.5,22.2,30.29,ENE,59,5.0,11.0,87,0.00,,---,0.00,VWS V13.01,2013-12-09 04:22:00,
2013-12-08 23:27:00,25.6,22.5,30.28,ENE,61,7.0,11.0,88,0.00,,---,0.00,VWS V13.01,2013-12-09 04:27:00,
2013-12-08 23:32:00,25.7,22.6,30.28,ENE,71,6.0,8.0,88,0.00,,---,0.00,VWS V13.01,2013-12-09 04:32:00,
2013-12-08 23:37:00,25.8,22.5,30.28,ENE,71,4.0,8.0,87,0.00,,---,0.00,VWS V13.01,2013-12-09 04:37:00,
2013-12-08 23:42:00,25.9,22.8,30.28,ENE,61,6.0,8.0,88,0.00,,---,0.00,VWS V13.01,2013-12-09 04:42:00,
2013-12-08 23:47:00,26.0,22.9,30.28,ENE,66,1.0,8.0,88,0.00,,---,0.00,VWS V13.01,2013-12-09 04:47:00,
2013-12-08 23:52:00,26.1,23.0,30.27,NE,55,7.0,8.0,88,0.00,,---,0.00,VWS V13.01,2013-12-09 04:52:00,
2013-12-08 23:58:00,26.2,23.1,30.26,NE,38,4.0,9.0,88,0.00,,---,0.00,VWS V13.01,2013-12-09 04:58:00,